Weather reports worldwide

Advertisment
Capo Caccia, Italy (16522): temperature & dewpoint: 16.01.2019 04:00:00 - 22.01.2019 04:00:00 (CET)Capo Caccia, Italy (16522): wind speed: 16.01.2019 04:00:00 - 22.01.2019 04:00:00 (CET)Capo Caccia, Italy (16522): wind direction: 16.01.2019 04:00:00 - 22.01.2019 04:00:00 (CET)Capo Caccia, Italy (16522): reduced air pressure: 16.01.2019 04:00:00 - 22.01.2019 04:00:00 (CET)Capo Caccia, Italy (16522): visibility: 16.01.2019 04:00:00 - 22.01.2019 04:00:00 (CET)Capo Caccia, Italy (16522): sunshine duration: 16.01.2019 04:00:00 - 22.01.2019 04:00:00 (CET)
Date & Time tt [°C] td [°C] ff [km/h] ff [kn] dd ppp [hPa] vv [km] sd [min]
22.01.2019 04:00:00 7,0 4,7 29 16 NNW 1009,7 15 -
22.01.2019 03:00:00 7,2 4,2 21 11 NW 1009,7 15 -
22.01.2019 02:00:00 8,4 5,2 29 16 NNW 1009,5 15 -
22.01.2019 01:00:00 8,0 3,5 34 18 NNW 1009,8 15 -
22.01.2019 00:00:00 7,8 4,6 24 13 N 1009,8 15 -
21.01.2019 23:00:00 7,6 4,7 15 8 N 1009,8 15 -
21.01.2019 22:00:00 7,2 4,9 13 7 N 1009,9 10 -
21.01.2019 21:00:00 7,4 4,4 11 6 N 1009,6 15 -
21.01.2019 20:00:00 7,4 4,2 15 8 NNE 1009,5 15 -
21.01.2019 19:00:00 7,6 3,8 26 14 NNE 1009,0 15 0
21.01.2019 18:00:00 7,0 3,6 35 19 NNE 1008,6 10 0
21.01.2019 17:00:00 7,0 3,8 37 20 NNE 1008,6 10 0
21.01.2019 16:00:00 7,2 4,0 37 20 NNE 1008,6 10 0
21.01.2019 15:00:00 7,2 4,5 35 19 NNE 1008,8 10 0
21.01.2019 14:00:00 7,2 4,3 35 19 NNE 1008,7 10 0
21.01.2019 13:00:00 7,6 4,7 34 18 NNE 1008,8 10 0
21.01.2019 12:00:00 7,0 4,1 37 20 NE 1009,5 10 0
21.01.2019 11:00:00 7,0 4,7 37 20 NE 1008,6 10 0
21.01.2019 10:00:00 7,0 4,7 35 19 NE 1009,7 10 0
21.01.2019 09:00:00 7,2 5,4 31 17 NE 1009,7 10 0
21.01.2019 08:00:00 7,8 5,8 31 17 NE 1009,5 15 0
21.01.2019 07:00:00 8,0 6,0 28 15 NE 1009,5 15 -
21.01.2019 06:00:00 8,0 6,8 26 14 NE 1009,5 15 -
21.01.2019 05:00:00 8,0 5,8 24 13 NE 1009,7 15 -
21.01.2019 04:00:00 8,0 6,5 16 9 NE 1010,4 15 -
21.01.2019 03:00:00 8,4 7,7 11 6 E 1011,0 10 -
21.01.2019 02:00:00 8,6 7,4 9 5 NE 1011,0 15 -
21.01.2019 01:00:00 8,4 5,9 15 8 NNE 1011,0 15 -
21.01.2019 00:00:00 8,6 6,5 15 8 NE 1011,1 15 -
20.01.2019 23:00:00 8,6 6,0 18 10 ENE 1011,1 15 -
20.01.2019 22:00:00 8,2 5,7 16 9 NE 1011,0 15 -
20.01.2019 21:00:00 8,2 5,7 21 11 NE 1011,1 15 -
20.01.2019 20:00:00 8,2 5,7 15 8 NE 1011,0 15 -
20.01.2019 19:00:00 8,6 6,4 13 7 ENE 1010,6 15 0
20.01.2019 18:00:00 10,0 5,4 0 0 N 1010,7 20 0
20.01.2019 17:00:00 10,2 5,2 0 0 N 1010,7 20 0
20.01.2019 16:00:00 10,8 4,7 0 0 N 1010,7 20 0
20.01.2019 15:00:00 10,6 5,0 0 0 N 1011,2 20 0
20.01.2019 14:00:00 11,0 5,3 0 0 N 1011,4 20 30
20.01.2019 13:00:00 10,6 5,4 9 5 ESE 1012,2 20 12
20.01.2019 12:00:00 11,0 6,2 11 6 E 1012,5 20 60
20.01.2019 11:00:00 10,6 5,4 11 6 E 1012,5 20 60
20.01.2019 10:00:00 9,2 5,9 8 4 E 1012,7 20 48
20.01.2019 09:00:00 7,6 4,9 5 3 E 1012,5 20 0
20.01.2019 08:00:00 7,4 4,9 4 2 E 1012,3 20 0
20.01.2019 07:00:00 8,0 6,1 5 3 E 1012,3 20 0
20.01.2019 06:00:00 8,8 6,9 4 2 E 1012,2 20 -
20.01.2019 05:00:00 8,8 5,5 0 0 N 1012,6 20 -
20.01.2019 04:00:00 8,4 6,9 4 2 NNW 1013,2 20 -
20.01.2019 03:00:00 8,4 5,9 0 0 N 1013,6 20 -
20.01.2019 02:00:00 8,3 5,2 5 3 SW 1013,7 20 -
20.01.2019 01:00:00 8,3 5,6 0 0 N 1013,7 20 -
20.01.2019 00:00:00 8,4 6,0 0 0 N 1013,7 20 -
19.01.2019 23:00:00 8,4 6,0 0 0 N 1013,7 20 -
19.01.2019 22:00:00 8,4 6,0 5 3 SSE 1013,7 20 -
19.01.2019 21:00:00 8,4 6,4 5 3 SSE 1013,7 20 -
19.01.2019 20:00:00 8,4 7,0 2 1 E 1013,6 15 -
19.01.2019 19:00:00 8,4 6,9 2 1 NE 1013,6 15 0
19.01.2019 18:00:00 8,6 7,2 2 1 SSE 1013,5 10 0
19.01.2019 17:00:00 10,0 8,4 4 2 SW 1013,4 12 0
19.01.2019 16:00:00 10,0 8,4 4 2 NE 1013,4 8 0
19.01.2019 15:00:00 10,0 8,3 8 4 WSW 1013,5 15 0
19.01.2019 14:00:00 10,0 7,6 5 3 SSE 1014,5 15 0
19.01.2019 13:00:00 10,2 7,3 4 2 WSW 1014,5 15 0
19.01.2019 12:00:00 9,4 7,5 2 1 WNW 1015,3 15 0
19.01.2019 11:00:00 9,4 7,8 9 5 S 1014,9 15 0
19.01.2019 10:00:00 9,4 7,2 4 2 E 1014,6 12 0
19.01.2019 09:00:00 9,6 6,9 5 3 NNW 1014,6 20 0
19.01.2019 08:00:00 9,4 6,1 11 6 W 1014,1 20 0
19.01.2019 07:00:00 9,2 5,6 9 5 S 1013,8 20 0
19.01.2019 06:00:00 10,2 5,8 11 6 W 1014,3 20 -
19.01.2019 05:00:00 10,2 3,9 18 10 W 1014,6 20 -
19.01.2019 04:00:00 10,2 4,6 21 11 WNW 1014,8 20 -
19.01.2019 03:00:00 10,2 5,6 15 8 WNW 1015,1 20 -
19.01.2019 02:00:00 9,8 4,0 22 12 WNW 1015,2 20 -
19.01.2019 01:00:00 9,8 4,2 15 8 NW 1015,5 20 -
19.01.2019 00:00:00 9,6 4,0 22 12 W 1015,8 20 -
18.01.2019 23:00:00 9,6 3,1 26 14 WNW 1015,6 20 -
18.01.2019 22:00:00 9,6 2,9 24 13 WNW 1015,4 20 -
18.01.2019 21:00:00 9,4 2,3 22 12 WNW 1015,3 20 -
18.01.2019 20:00:00 9,2 3,2 16 9 WNW 1015,4 20 -
18.01.2019 19:00:00 9,2 2,5 18 10 WNW 1015,4 20 0
18.01.2019 18:00:00 9,4 2,0 21 11 WNW 1014,9 20 18
18.01.2019 17:00:00 10,0 2,6 24 13 WNW 1014,5 20 60
18.01.2019 16:00:00 10,4 3,0 24 13 NW 1014,5 20 60
18.01.2019 15:00:00 10,8 2,9 22 12 WNW 1014,5 20 36
18.01.2019 14:00:00 10,8 4,3 16 9 NW 1014,5 20 36
18.01.2019 13:00:00 10,8 2,6 22 12 WNW 1015,1 20 60
18.01.2019 12:00:00 11,0 3,5 22 12 W 1015,5 20 60
18.01.2019 11:00:00 10,8 4,5 21 11 WNW 1015,5 20 60
18.01.2019 10:00:00 10,8 4,5 22 12 WNW 1015,0 20 60
18.01.2019 09:00:00 10,6 6,0 22 12 NNW 1014,5 20 12
18.01.2019 08:00:00 10,8 6,2 16 9 W 1014,1 20 0
18.01.2019 07:00:00 10,8 6,2 15 8 WNW 1014,1 20 0
18.01.2019 06:00:00 11,0 6,2 16 9 NW 1014,1 20 -
18.01.2019 05:00:00 11,0 7,3 16 9 NNW 1014,4 20 -
18.01.2019 04:00:00 11,0 7,5 13 7 NW 1014,5 20 -
18.01.2019 03:00:00 10,8 9,1 9 5 W 1014,9 15 -
18.01.2019 02:00:00 10,8 9,2 4 2 WNW 1014,9 15 -
18.01.2019 01:00:00 10,4 8,7 13 7 W 1015,0 15 -
18.01.2019 00:00:00 11,4 9,1 8 4 WSW 1015,4 20 -
17.01.2019 23:00:00 11,4 9,0 8 4 SW 1015,4 20 -
17.01.2019 22:00:00 11,4 8,8 5 3 W 1015,4 20 -
17.01.2019 21:00:00 11,4 9,0 8 4 NW 1015,4 20 -
17.01.2019 20:00:00 11,4 9,0 5 3 N 1015,4 20 -
17.01.2019 19:00:00 11,4 9,0 5 3 ENE 1015,4 20 0
17.01.2019 18:00:00 11,4 9,3 4 2 WNW 1015,5 20 0
17.01.2019 17:00:00 12,4 9,4 5 3 NW 1015,4 20 36
17.01.2019 16:00:00 14,2 9,4 5 3 NW 1015,2 20 60
17.01.2019 15:00:00 14,2 9,4 8 4 NNW 1015,4 20 60
17.01.2019 14:00:00 13,6 9,5 8 4 SSW 1015,9 20 60
17.01.2019 13:00:00 13,6 9,5 5 3 S 1016,3 20 60
17.01.2019 12:00:00 13,2 9,5 5 3 S 1017,0 20 54
17.01.2019 11:00:00 13,0 10,2 11 6 S 1017,1 20 36
17.01.2019 10:00:00 12,4 10,3 5 3 SSE 1016,6 20 12
17.01.2019 09:00:00 10,8 8,9 13 7 S 1016,8 20 0
17.01.2019 08:00:00 11,0 9,1 9 5 S 1016,8 20 0
17.01.2019 07:00:00 11,0 9,1 8 4 S 1016,8 15 -
17.01.2019 06:00:00 11,0 9,1 9 5 S 1017,3 15 -
17.01.2019 05:00:00 11,0 9,4 9 5 S 1017,6 15 -
17.01.2019 04:00:00 11,0 8,6 0 0 N 1018,3 10 -
17.01.2019 03:00:00 11,0 9,1 0 0 N 1019,7 15 -
17.01.2019 02:00:00 11,4 9,3 0 0 N 1019,7 15 -
17.01.2019 01:00:00 11,1 8,0 13 7 SSE 1019,7 15 -
17.01.2019 00:00:00 11,0 9,4 13 7 SSE 1019,8 20 -
16.01.2019 23:00:00 11,0 9,4 13 7 SSE 1019,8 10 -
16.01.2019 22:00:00 11,0 9,4 13 7 S 1019,8 15 -
16.01.2019 21:00:00 11,2 9,6 16 9 SSE 1019,8 15 -
16.01.2019 20:00:00 11,2 9,1 13 7 SSE 1019,8 15 -
16.01.2019 19:00:00 11,6 9,0 11 6 SSE 1019,8 15 -
16.01.2019 18:00:00 11,6 9,0 15 8 SSE 1019,8 15 0
16.01.2019 17:00:00 12,0 7,1 18 10 SSE 1019,8 15 6
16.01.2019 16:00:00 12,2 6,9 16 9 S 1019,8 20 48
16.01.2019 15:00:00 12,6 8,3 11 6 S 1019,8 20 30
16.01.2019 14:00:00 11,6 7,3 18 10 S 1020,8 20 30
16.01.2019 13:00:00 11,6 8,3 24 13 S 1020,8 20 0
16.01.2019 12:00:00 11,2 6,7 24 13 S 1021,5 20 0
16.01.2019 11:00:00 11,6 7,3 28 15 S 1021,5 20 0
16.01.2019 10:00:00 11,2 6,9 28 15 SSE 1021,3 20 0
16.01.2019 09:00:00 10,4 6,4 29 16 SSE 1020,7 15 0
16.01.2019 08:00:00 10,4 5,8 34 18 SSE 1020,7 15 0
16.01.2019 07:00:00 10,2 6,5 31 17 SSE 1020,8 20 0
16.01.2019 06:00:00 10,4 7,3 29 16 SSE 1020,8 20 -
16.01.2019 05:00:00 10,8 7,5 29 16 SSE 1021,0 20 -
16.01.2019 04:00:00 11,0 8,6 24 13 SSE 1021,4 20 -

tt = temperature
td = dewpoint
ff = wind speed
dd = wind direction
ppp = reduced air pressure
vv = visibility
sd = sunshine duration

Next stations